When you browse on this site, cookies collect data to enhance your experience and personalize the content and advertising you see.
Visit our Privacy Policy to learn more. By continuing to use the site, you agree to this use of cookies and data.

Tiempo cada hora Saurimo

Hoy, 4 Agosto, Martes

Tiempo Temperatura Precipitaciones Viento Presión Humedad
00:00 +18°C° 0 mm 2 mps 671 mmHg 34%
01:00 +17°C° 0 mm 2 mps 671 mmHg 39%
02:00 +17°C° 0 mm 2 mps 671 mmHg 38%
03:00 +17°C° 0 mm 2 mps 671 mmHg 38%
04:00 +16°C° 0 mm 3 mps 671 mmHg 37%
05:00 +17°C° 0 mm 3 mps 672 mmHg 36%
06:00 +17°C° 0 mm 3 mps 672 mmHg 34%
07:00 +18°C° 0 mm 3 mps 673 mmHg 33%
08:00 +22°C° 0 mm 3 mps 673 mmHg 28%
09:00 +26°C° 0 mm 3 mps 674 mmHg 23%
10:00 +30°C° 0 mm 3 mps 675 mmHg 18%
11:00 +34°C° 0 mm 2 mps 674 mmHg 16%
12:00 +36°C° 0 mm 1 mps 674 mmHg 14%
13:00 +39°C° 0 mm 1 mps 674 mmHg 12%
14:00 +37°C° 0 mm 1 mps 673 mmHg 12%
15:00 +35°C° 0 mm 1 mps 672 mmHg 13%
16:00 +32°C° 0 mm 0 mps 671 mmHg 13%
17:00 +31°C° 0 mm 1 mps 671 mmHg 17%
18:00 +27°C° 0 mm 1 mps 671 mmHg 20%
19:00 +24°C° 0 mm 1 mps 670 mmHg 23%
20:00 +23°C° 0 mm 1 mps 670 mmHg 25%
21:00 +22°C° 0 mm 1 mps 671 mmHg 26%
22:00 +21°C° 0 mm 2 mps 671 mmHg 28%
23:00 +20°C° 0 mm 2 mps 671 mmHg 29%

Mañana, 5 Agosto, Miércoles

Tiempo Temperatura Precipitaciones Viento Presión Humedad
00:00 +19°C° 0 mm 2 mps 670 mmHg 30%
01:00 +19°C° 0 mm 2 mps 670 mmHg 31%
02:00 +19°C° 0 mm 1 mps 670 mmHg 33%
03:00 +19°C° 0 mm 1 mps 670 mmHg 34%
04:00 +18°C° 0 mm 1 mps 670 mmHg 35%
05:00 +18°C° 0 mm 1 mps 671 mmHg 34%
06:00 +19°C° 0 mm 1 mps 671 mmHg 34%
07:00 +20°C° 0 mm 1 mps 672 mmHg 33%
08:00 +24°C° 0 mm 2 mps 673 mmHg 27%
09:00 +27°C° 0 mm 2 mps 673 mmHg 22%
10:00 +31°C° 0 mm 3 mps 674 mmHg 16%
11:00 +35°C° 0 mm 2 mps 674 mmHg 14%
12:00 +37°C° 0 mm 2 mps 673 mmHg 12%
13:00 +40°C° 0 mm 1 mps 673 mmHg 10%
14:00 +39°C° 0 mm 1 mps 672 mmHg 11%
15:00 +37°C° 0 mm 1 mps 672 mmHg 11%
16:00 +36°C° 0 mm 1 mps 671 mmHg 11%
17:00 +33°C° 0 mm 1 mps 671 mmHg 14%
18:00 +29°C° 0 mm 1 mps 670 mmHg 18%
19:00 +26°C° 0 mm 1 mps 670 mmHg 21%
20:00 +25°C° 0 mm 1 mps 670 mmHg 22%
21:00 +23°C° 0 mm 1 mps 670 mmHg 23%
22:00 +22°C° 0 mm 1 mps 671 mmHg 24%
23:00 +21°C° 0 mm 1 mps 670 mmHg 25%

Pasado mañana, 6 Agosto, Jueves

Tiempo Temperatura Precipitaciones Viento Presión Humedad
00:00 +18°C° 0 mm 0 mps 670 mmHg 27%
01:00 +17°C° 0 mm 0 mps 670 mmHg 28%
02:00 +17°C° 0 mm 0 mps 669 mmHg 28%
03:00 +18°C° 0 mm 1 mps 669 mmHg 29%
04:00 +18°C° 0 mm 1 mps 669 mmHg 29%
05:00 +18°C° 0 mm 1 mps 670 mmHg 27%
06:00 +19°C° 0 mm 1 mps 671 mmHg 26%
07:00 +20°C° 0 mm 1 mps 671 mmHg 24%
08:00 +24°C° 0 mm 2 mps 672 mmHg 20%
09:00 +28°C° 0 mm 3 mps 673 mmHg 15%
10:00 +33°C° 0 mm 4 mps 674 mmHg 11%
11:00 +35°C° 0 mm 4 mps 673 mmHg 10%
12:00 +36°C° 0 mm 3 mps 673 mmHg 9%
13:00 +38°C° 0 mm 3 mps 672 mmHg 9%
14:00 +37°C° 0 mm 3 mps 671 mmHg 9%
15:00 +37°C° 0 mm 2 mps 671 mmHg 9%
16:00 +37°C° 0 mm 2 mps 670 mmHg 9%
17:00 +34°C° 0 mm 2 mps 670 mmHg 11%
18:00 +29°C° 0 mm 1 mps 670 mmHg 13%
19:00 +26°C° 0 mm 1 mps 670 mmHg 16%
20:00 +25°C° 0 mm 1 mps 670 mmHg 16%
21:00 +24°C° 0 mm 1 mps 670 mmHg 17%
22:00 +21°C° 0 mm 2 mps 670 mmHg 17%
23:00 +21°C° 0 mm 2 mps 670 mmHg 16%

7 Agosto, Viernes

Tiempo Temperatura Precipitaciones Viento Presión Humedad
00:00 +21°C° 0 mm 2 mps 670 mmHg 16%
01:00 +20°C° 0 mm 2 mps 670 mmHg 15%
02:00 +19°C° 0 mm 2 mps 670 mmHg 16%
03:00 +18°C° 0 mm 2 mps 670 mmHg 18%
04:00 +17°C° 0 mm 2 mps 670 mmHg 19%
05:00 +19°C° 0 mm 1 mps 670 mmHg 19%
06:00 +20°C° 0 mm 1 mps 671 mmHg 19%
07:00 +20°C° 0 mm 1 mps 672 mmHg 19%
08:00 +24°C° 0 mm 2 mps 673 mmHg 16%
09:00 +29°C° 0 mm 3 mps 673 mmHg 14%
10:00 +34°C° 0 mm 4 mps 674 mmHg 11%
11:00 +35°C° 0 mm 3 mps 674 mmHg 11%
12:00 +37°C° 0 mm 3 mps 673 mmHg 10%
13:00 +39°C° 0 mm 3 mps 673 mmHg 9%
14:00 +38°C° 0 mm 3 mps 672 mmHg 9%
15:00 +38°C° 0 mm 3 mps 671 mmHg 10%
16:00 +37°C° 0 mm 3 mps 671 mmHg 10%
17:00 +34°C° 0 mm 2 mps 671 mmHg 13%
18:00 +30°C° 0 mm 2 mps 671 mmHg 15%
19:00 +27°C° 0 mm 2 mps 670 mmHg 18%
20:00 +26°C° 0 mm 2 mps 671 mmHg 19%
21:00 +25°C° 0 mm 1 mps 671 mmHg 20%
22:00 +24°C° 0 mm 1 mps 671 mmHg 21%
23:00 +23°C° 0 mm 1 mps 671 mmHg 22%

8 Agosto, Sábado

Tiempo Temperatura Precipitaciones Viento Presión Humedad
00:00 +22°C° 0 mm 1 mps 671 mmHg 23%
01:00 +22°C° 0 mm 1 mps 670 mmHg 23%
02:00 +21°C° 0 mm 1 mps 670 mmHg 23%
03:00 +21°C° 0 mm 1 mps 670 mmHg 23%
04:00 +19°C° 0 mm 2 mps 670 mmHg 23%
05:00 +21°C° 0 mm 1 mps 671 mmHg 24%
06:00 +21°C° 0 mm 1 mps 671 mmHg 24%
07:00 +21°C° 0 mm 1 mps 672 mmHg 24%
08:00 +25°C° 0 mm 1 mps 673 mmHg 21%
09:00 +29°C° 0 mm 2 mps 674 mmHg 18%
10:00 +32°C° 0 mm 2 mps 674 mmHg 15%
11:00 +36°C° 0 mm 2 mps 674 mmHg 14%
12:00 +37°C° 0 mm 1 mps 673 mmHg 14%
13:00 +40°C° 0 mm 1 mps 673 mmHg 13%
14:00 +39°C° 0 mm 1 mps 672 mmHg 14%
15:00 +37°C° 0 mm 1 mps 672 mmHg 15%
16:00 +36°C° 0 mm 1 mps 671 mmHg 16%
17:00 +34°C° 0 mm 1 mps 671 mmHg 20%
18:00 +31°C° 0 mm 1 mps 671 mmHg 24%
19:00 +29°C° 0 mm 2 mps 671 mmHg 28%
20:00 +28°C° 0 mm 1 mps 671 mmHg 30%
21:00 +27°C° 0 mm 1 mps 671 mmHg 32%
22:00 +26°C° 0 mm 1 mps 671 mmHg 34%
23:00 +25°C° 0 mm 1 mps 671 mmHg 36%

9 Agosto, Domingo

Tiempo Temperatura Precipitaciones Viento Presión Humedad
00:00 +22°C° 0 mm 0 mps 670 mmHg 38%
01:00 +22°C° 0 mm 0 mps 670 mmHg 40%
02:00 +23°C° 0 mm 1 mps 670 mmHg 40%
03:00 +23°C° 0 mm 1 mps 670 mmHg 40%
04:00 +23°C° 0 mm 1 mps 670 mmHg 40%
05:00 +23°C° 0 mm 2 mps 671 mmHg 37%
06:00 +23°C° 0 mm 2 mps 671 mmHg 35%
07:00 +24°C° 0 mm 2 mps 672 mmHg 33%
08:00 +27°C° 0 mm 2 mps 672 mmHg 28%
09:00 +30°C° 0 mm 3 mps 673 mmHg 23%
10:00 +34°C° 0 mm 3 mps 674 mmHg 19%
11:00 +35°C° 0 mm 3 mps 673 mmHg 17%
12:00 +37°C° 0 mm 3 mps 672 mmHg 16%
13:00 +38°C° 0 mm 2 mps 672 mmHg 15%
14:00 +38°C° 0 mm 2 mps 671 mmHg 15%
15:00 +37°C° 0 mm 2 mps 670 mmHg 15%
16:00 +37°C° 0 mm 2 mps 670 mmHg 15%
17:00 +34°C° 0 mm 2 mps 670 mmHg 18%
18:00 +30°C° 0 mm 1 mps 669 mmHg 22%
19:00 +27°C° 0 mm 1 mps 669 mmHg 25%
20:00 +26°C° 0 mm 1 mps 669 mmHg 28%
21:00 +25°C° 0 mm 1 mps 670 mmHg 32%
22:00 +22°C° 0 mm 0 mps 670 mmHg 35%
23:00 +23°C° 0 mm 1 mps 670 mmHg 37%
Mostrar más